Year,Month,Day,Hour,Minute,Value (Times are PST for barometer in hPa)
2023,01,06,00,00,983.78
2023,01,06,00,01,983.78
2023,01,06,00,02,983.78
2023,01,06,00,03,983.78
2023,01,06,00,04,983.78
2023,01,06,00,05,983.78
2023,01,06,00,06,983.78
2023,01,06,00,07,983.78
2023,01,06,00,08,983.78
2023,01,06,00,09,983.78
2023,01,06,00,10,984.05
2023,01,06,00,11,984.80
2023,01,06,00,12,984.35
2023,01,06,00,13,983.00
2023,01,06,00,14,983.42
2023,01,06,00,15,984.59
2023,01,06,00,16,984.59
2023,01,06,00,17,984.63
2023,01,06,00,18,984.76
2023,01,06,00,19,984.91
2023,01,06,00,20,985.22
2023,01,06,00,21,984.86
2023,01,06,00,22,984.86
2023,01,06,00,23,984.46
2023,01,06,00,24,983.13
2023,01,06,00,25,982.70
2023,01,06,00,26,982.70
2023,01,06,00,27,982.70
2023,01,06,00,28,982.70
2023,01,06,00,29,982.70
2023,01,06,00,30,982.70
2023,01,06,00,31,982.70
2023,01,06,00,32,982.70
2023,01,06,00,33,982.70
2023,01,06,00,34,982.70
2023,01,06,00,35,982.70
2023,01,06,00,36,982.70
2023,01,06,00,37,983.87
2023,01,06,00,38,987.31
2023,01,06,00,39,987.13
2023,01,06,00,40,987.13
2023,01,06,00,41,987.13
2023,01,06,00,42,987.13
2023,01,06,00,43,987.13
2023,01,06,00,44,987.13
2023,01,06,00,45,987.13
2023,01,06,00,46,987.13
2023,01,06,00,47,987.13
2023,01,06,00,48,987.13
2023,01,06,00,49,987.13
2023,01,06,00,50,987.13
2023,01,06,00,51,987.51
2023,01,06,00,52,988.72
2023,01,06,00,53,989.11
2023,01,06,00,54,989.06
2023,01,06,00,55,988.47
2023,01,06,00,56,986.69
2023,01,06,00,57,986.69
2023,01,06,00,58,986.69
2023,01,06,00,59,986.69
2023,01,06,01,00,986.69
2023,01,06,01,01,986.69
2023,01,06,01,02,988.42
2023,01,06,01,03,993.59
2023,01,06,01,04,993.57
2023,01,06,01,05,993.57
2023,01,06,01,06,993.57
2023,01,06,01,07,993.62
2023,01,06,01,08,993.84
2023,01,06,01,09,993.41
2023,01,06,01,10,992.09
2023,01,06,01,11,992.04
2023,01,06,01,12,992.04
2023,01,06,01,13,992.04
2023,01,06,01,14,992.78
2023,01,06,01,15,994.96
2023,01,06,01,16,994.85
2023,01,06,01,17,994.85
2023,01,06,01,18,994.85
2023,01,06,01,19,992.29
2023,01,06,01,20,984.63
2023,01,06,01,21,984.63
2023,01,06,01,22,985.12
2023,01,06,01,23,986.85
2023,01,06,01,24,986.52
2023,01,06,01,25,986.52
2023,01,06,01,26,986.52
2023,01,06,01,27,986.52
2023,01,06,01,28,986.52
2023,01,06,01,29,986.52
2023,01,06,01,30,986.52
2023,01,06,01,31,986.52
2023,01,06,01,32,986.52
2023,01,06,01,33,987.59
2023,01,06,01,34,990.79
2023,01,06,01,35,990.79
2023,01,06,01,36,990.79
2023,01,06,01,37,990.79
2023,01,06,01,38,990.79
2023,01,06,01,39,990.79
2023,01,06,01,40,990.79
2023,01,06,01,41,990.79
2023,01,06,01,42,990.79
2023,01,06,01,43,991.82
2023,01,06,01,44,994.89
2023,01,06,01,45,994.80
2023,01,06,01,46,994.55
2023,01,06,01,47,994.55
2023,01,06,01,48,994.55
2023,01,06,01,49,994.55
2023,01,06,01,50,994.20
2023,01,06,01,51,992.82
2023,01,06,01,52,992.82
2023,01,06,01,53,992.08
2023,01,06,01,54,989.36
2023,01,06,01,55,989.54
2023,01,06,01,56,989.54
2023,01,06,01,57,989.49
2023,01,06,01,58,989.32
2023,01,06,01,59,989.29
2023,01,06,02,00,989.52
2023,01,06,02,01,989.92
2023,01,06,02,02,989.74
2023,01,06,02,03,989.74
2023,01,06,02,04,989.74
2023,01,06,02,05,989.99
2023,01,06,02,06,990.76
2023,01,06,02,07,990.22
2023,01,06,02,08,988.67
2023,01,06,02,09,988.86
2023,01,06,02,10,988.86
2023,01,06,02,11,988.36
2023,01,06,02,12,986.86
2023,01,06,02,13,986.86
2023,01,06,02,14,986.86
2023,01,06,02,15,986.86
2023,01,06,02,16,986.86
2023,01,06,02,17,986.86
2023,01,06,02,18,986.72
2023,01,06,02,19,986.26
2023,01,06,02,20,986.02
2023,01,06,02,21,986.02
2023,01,06,02,22,986.02
2023,01,06,02,23,986.02
2023,01,06,02,24,986.02
2023,01,06,02,25,986.02
2023,01,06,02,26,986.02
2023,01,06,02,27,986.02
2023,01,06,02,28,986.02
2023,01,06,02,29,986.02
2023,01,06,02,30,990.93
2023,01,06,02,31,1005.66
2023,01,06,02,32,1005.66
2023,01,06,02,33,1005.66
2023,01,06,02,34,1005.66
2023,01,06,02,35,1003.59
2023,01,06,02,36,995.46
2023,01,06,02,37,995.84
2023,01,06,02,38,995.84
2023,01,06,02,39,995.29
2023,01,06,02,40,993.09
2023,01,06,02,41,993.76
2023,01,06,02,42,995.77
2023,01,06,02,43,996.37
2023,01,06,02,44,998.61
2023,01,06,02,45,998.61
2023,01,06,02,46,998.61
2023,01,06,02,47,998.61
2023,01,06,02,48,998.61
2023,01,06,02,49,998.61
2023,01,06,02,50,1000.78
2023,01,06,02,51,1008.79
2023,01,06,02,52,1008.43
2023,01,06,02,53,1008.43
2023,01,06,02,54,1008.43
2023,01,06,02,55,1008.43
2023,01,06,02,56,1008.43
2023,01,06,02,57,1008.43
2023,01,06,02,58,1008.43
2023,01,06,02,59,1008.43
2023,01,06,03,00,1008.43
2023,01,06,03,01,1006.06
2023,01,06,03,02,997.16
2023,01,06,03,06,997.16
2023,01,06,03,07,997.16
2023,01,06,03,08,997.16
2023,01,06,03,09,997.16
2023,01,06,03,10,997.16
2023,01,06,03,11,997.16
2023,01,06,03,12,997.16
2023,01,06,03,13,997.16
2023,01,06,03,14,997.16
2023,01,06,03,15,997.16
2023,01,06,03,16,995.74
2023,01,06,03,17,993.61
2023,01,06,03,18,993.63
2023,01,06,03,19,993.63
2023,01,06,03,20,993.63
2023,01,06,03,21,993.63
2023,01,06,03,22,994.47
2023,01,06,03,23,995.73
2023,01,06,03,24,995.73
2023,01,06,03,25,995.73
2023,01,06,03,26,995.73
2023,01,06,03,27,995.73
2023,01,06,03,28,995.73
2023,01,06,03,29,995.73
2023,01,06,03,30,995.41
2023,01,06,03,31,994.85
2023,01,06,03,32,994.85
2023,01,06,03,33,994.85
2023,01,06,03,34,994.85
2023,01,06,03,35,993.17
2023,01,06,03,36,990.65
2023,01,06,03,37,990.65
2023,01,06,03,38,990.65
2023,01,06,03,39,990.65
2023,01,06,03,40,990.65
2023,01,06,03,41,990.65
2023,01,06,03,42,994.37
2023,01,06,03,43,999.68
2023,01,06,03,44,999.97
2023,01,06,03,45,999.97
2023,01,06,03,46,999.97
2023,01,06,03,47,999.97
2023,01,06,03,48,1003.46
2023,01,06,03,49,1008.46
2023,01,06,03,50,1008.09
2023,01,06,03,51,1007.66
2023,01,06,03,52,1007.01
2023,01,06,03,53,1007.01
2023,01,06,03,54,1007.01
2023,01,06,03,55,1007.01
2023,01,06,03,56,1007.01
2023,01,06,03,57,1007.02
2023,01,06,03,58,1007.04
2023,01,06,03,59,1007.92
2023,01,06,04,00,1009.55
2023,01,06,04,01,1009.55
2023,01,06,04,02,1009.55
2023,01,06,04,03,1009.54
2023,01,06,04,04,1009.60
2023,01,06,04,05,1009.54
2023,01,06,04,06,1009.14
2023,01,06,04,07,1009.14
2023,01,06,04,08,1009.14
2023,01,06,04,09,1009.14
2023,01,06,04,10,1008.57
2023,01,06,04,11,1007.71
2023,01,06,04,12,1007.76
2023,01,06,04,13,1007.86
2023,01,06,04,14,1007.86
2023,01,06,04,15,1007.77
2023,01,06,04,16,1007.51
2023,01,06,04,17,1007.30
2023,01,06,04,18,1007.18
2023,01,06,04,19,1007.18
2023,01,06,04,20,1007.18
2023,01,06,04,21,1007.18
2023,01,06,04,22,1007.18
2023,01,06,04,23,1007.18
2023,01,06,04,24,1007.18
2023,01,06,04,25,1007.18
2023,01,06,04,26,1007.18
2023,01,06,04,27,1007.51
2023,01,06,04,28,1008.13
2023,01,06,04,29,1008.13
2023,01,06,04,30,1008.13
2023,01,06,04,31,1008.53
2023,01,06,04,32,1009.21
2023,01,06,04,33,1009.21
2023,01,06,04,34,1009.21
2023,01,06,04,35,1009.21
2023,01,06,04,36,1009.15
2023,01,06,04,37,1009.04
2023,01,06,04,38,1009.04
2023,01,06,04,39,1009.04
2023,01,06,04,40,1009.04
2023,01,06,04,41,1009.04
2023,01,06,04,42,1009.04
2023,01,06,04,43,1009.04
2023,01,06,04,44,1009.04
2023,01,06,04,45,1009.04
2023,01,06,04,46,1009.04
2023,01,06,04,47,1009.04
2023,01,06,04,48,1009.04
2023,01,06,04,49,1009.04
2023,01,06,04,50,1009.04
2023,01,06,04,51,1009.04
2023,01,06,04,52,1004.18
2023,01,06,04,53,996.89
2023,01,06,04,54,996.89
2023,01,06,04,55,996.89
2023,01,06,04,56,996.10
2023,01,06,04,57,994.92
2023,01,06,04,58,993.90
2023,01,06,04,59,992.01
2023,01,06,05,00,992.01
2023,01,06,05,01,992.01
2023,01,06,05,02,992.01
2023,01,06,05,03,992.01
2023,01,06,05,04,992.01
2023,01,06,05,05,992.01
2023,01,06,05,06,992.01
2023,01,06,05,07,992.01
2023,01,06,05,08,992.01
2023,01,06,05,09,992.74
2023,01,06,05,10,993.81
2023,01,06,05,11,993.77
2023,01,06,05,12,993.77
2023,01,06,05,13,993.77
2023,01,06,05,14,993.77
2023,01,06,05,15,993.77
2023,01,06,05,16,993.77
2023,01,06,05,17,993.77
2023,01,06,05,18,993.77
2023,01,06,05,19,998.85
2023,01,06,05,20,1008.50
2023,01,06,05,21,1008.50
2023,01,06,05,22,1008.50
2023,01,06,05,23,1008.50
2023,01,06,05,24,1008.50
2023,01,06,05,25,1008.50
2023,01,06,05,26,1008.50
2023,01,06,05,27,1008.50
2023,01,06,05,28,1008.50
2023,01,06,05,29,1008.50
2023,01,06,05,30,1008.50
2023,01,06,05,31,1008.50
2023,01,06,05,32,1008.50
2023,01,06,05,33,1008.50
2023,01,06,05,34,1008.50
2023,01,06,05,35,1002.18
2023,01,06,05,36,992.69
2023,01,06,05,37,992.69
2023,01,06,05,38,992.69
2023,01,06,05,39,992.69
2023,01,06,05,40,992.69
2023,01,06,05,41,992.69
2023,01,06,05,42,992.69
2023,01,06,05,43,992.69
2023,01,06,05,44,992.69
2023,01,06,05,45,992.69
2023,01,06,05,46,992.69
2023,01,06,05,47,992.69
2023,01,06,05,48,992.69
2023,01,06,05,49,992.69
2023,01,06,05,50,992.69
2023,01,06,05,51,992.69
2023,01,06,05,52,992.69
2023,01,06,05,53,992.69
2023,01,06,05,54,992.69
2023,01,06,05,55,992.69
2023,01,06,05,56,992.69
2023,01,06,05,57,992.69
2023,01,06,05,58,992.69
2023,01,06,05,59,996.28
2023,01,06,06,00,1003.46
2023,01,06,06,01,1000.35
2023,01,06,06,02,994.58
2023,01,06,06,03,994.58
2023,01,06,06,04,994.58
2023,01,06,06,05,994.58
2023,01,06,06,06,994.58
2023,01,06,06,07,994.58
2023,01,06,06,08,994.58
2023,01,06,06,09,997.10
2023,01,06,06,10,1000.88
2023,01,06,06,11,1000.88
2023,01,06,06,12,1000.88
2023,01,06,06,13,1000.88
2023,01,06,06,14,1000.88
2023,01,06,06,15,1000.88
2023,01,06,06,16,1000.88
2023,01,06,06,17,1000.88
2023,01,06,06,18,1000.88
2023,01,06,06,19,1000.88
2023,01,06,06,20,1000.20
2023,01,06,06,21,998.95
2023,01,06,06,22,998.95
2023,01,06,06,23,998.95
2023,01,06,06,24,998.95
2023,01,06,06,25,998.95
2023,01,06,06,26,1000.05
2023,01,06,06,27,1001.93
2023,01,06,06,28,1001.93
2023,01,06,06,29,1001.93
2023,01,06,06,30,1001.93
2023,01,06,06,31,1001.93
2023,01,06,06,32,1001.93
2023,01,06,06,33,999.13
2023,01,06,06,34,993.94
2023,01,06,06,35,993.94
2023,01,06,06,36,993.94
2023,01,06,06,37,993.94
2023,01,06,06,38,993.94
2023,01,06,06,39,993.94
2023,01,06,06,40,993.94
2023,01,06,06,41,993.94
2023,01,06,06,42,993.94
2023,01,06,06,43,993.94
2023,01,06,06,44,993.94
2023,01,06,06,45,993.94
2023,01,06,06,46,993.94
2023,01,06,06,47,993.94
2023,01,06,06,48,993.94
2023,01,06,06,49,993.88
2023,01,06,06,50,993.77
2023,01,06,06,51,993.77
2023,01,06,06,52,993.77
2023,01,06,06,53,993.77
2023,01,06,06,54,993.77
2023,01,06,06,55,994.00
2023,01,06,06,56,994.35
2023,01,06,06,57,994.03
2023,01,06,06,58,993.43
2023,01,06,06,59,993.43
2023,01,06,07,00,993.43
2023,01,06,07,01,993.43
2023,01,06,07,02,993.43
2023,01,06,07,03,993.43
2023,01,06,07,04,993.43
2023,01,06,07,05,993.36
2023,01,06,07,06,993.23
2023,01,06,07,07,992.94
2023,01,06,07,08,992.38
2023,01,06,07,09,992.38
2023,01,06,07,10,992.38
2023,01,06,07,11,992.59
2023,01,06,07,12,992.99
2023,01,06,07,13,992.99
2023,01,06,07,14,992.99
2023,01,06,07,15,992.92
2023,01,06,07,16,992.79
2023,01,06,07,17,992.79
2023,01,06,07,18,991.59
2023,01,06,07,19,989.22
2023,01,06,07,20,989.57
2023,01,06,07,21,989.57
2023,01,06,07,22,989.57
2023,01,06,07,23,989.57
2023,01,06,07,24,989.57
2023,01,06,07,25,993.39
2023,01,06,07,26,1000.48
2023,01,06,07,27,1000.48
2023,01,06,07,28,1000.48
2023,01,06,07,29,1000.48
2023,01,06,07,30,1000.48
2023,01,06,07,31,1000.48
2023,01,06,07,32,1001.06
2023,01,06,07,33,1002.13
2023,01,06,07,34,1002.13
2023,01,06,07,35,1000.38
2023,01,06,07,36,998.04
2023,01,06,07,37,997.60
2023,01,06,07,38,994.99
2023,01,06,07,39,990.15
2023,01,06,07,40,990.15
2023,01,06,07,41,990.15
2023,01,06,07,42,988.54
2023,01,06,07,43,985.54
2023,01,06,07,44,985.54
2023,01,06,07,45,985.54
2023,01,06,07,46,985.54
2023,01,06,07,47,985.54
2023,01,06,07,48,985.54
2023,01,06,07,49,985.54
2023,01,06,07,50,985.54
2023,01,06,07,51,985.54
2023,01,06,07,52,985.54
2023,01,06,07,53,985.54
2023,01,06,07,54,985.54
2023,01,06,07,55,985.54
2023,01,06,07,56,989.10
2023,01,06,07,57,996.10
2023,01,06,07,58,996.55
2023,01,06,07,59,996.55
2023,01,06,08,00,996.55
2023,01,06,08,01,996.55
2023,01,06,08,02,996.55
2023,01,06,08,03,996.55
2023,01,06,08,04,996.55
2023,01,06,08,05,996.55
2023,01,06,08,06,994.20
2023,01,06,08,07,989.74
2023,01,06,08,08,992.39
2023,01,06,08,09,997.43
2023,01,06,08,10,997.43
2023,01,06,08,11,997.43
2023,01,06,08,12,997.43
2023,01,06,08,13,997.43
2023,01,06,08,14,997.43
2023,01,06,08,15,997.43
2023,01,06,08,16,997.43
2023,01,06,08,17,997.43
2023,01,06,08,18,997.43
2023,01,06,08,19,997.43
2023,01,06,08,20,997.43
2023,01,06,08,21,997.43
2023,01,06,08,22,997.43
2023,01,06,08,23,997.43
2023,01,06,08,24,997.43
2023,01,06,08,25,997.43
2023,01,06,08,26,997.43
2023,01,06,08,27,997.43
2023,01,06,08,28,994.09
2023,01,06,08,29,986.66
2023,01,06,08,30,986.66
2023,01,06,08,31,986.66
2023,01,06,08,32,986.66
2023,01,06,08,33,986.66
2023,01,06,08,34,986.66
2023,01,06,08,35,986.66
2023,01,06,08,36,986.66
2023,01,06,08,37,986.66
2023,01,06,08,38,986.66
2023,01,06,08,39,986.66
2023,01,06,08,40,986.66
2023,01,06,08,41,986.66
2023,01,06,08,42,986.66
2023,01,06,08,43,986.66
2023,01,06,08,44,986.66
2023,01,06,08,45,986.70
2023,01,06,08,46,986.76
2023,01,06,08,47,986.76
2023,01,06,08,48,986.76
2023,01,06,08,49,986.76
2023,01,06,08,50,986.76
2023,01,06,08,51,986.76
2023,01,06,08,52,986.76
2023,01,06,08,53,986.76
2023,01,06,08,54,986.76
2023,01,06,08,55,986.76
2023,01,06,08,56,986.76
2023,01,06,08,57,986.76
2023,01,06,08,58,986.76
2023,01,06,08,59,986.76
2023,01,06,09,00,986.76
2023,01,06,09,01,977.88
2023,01,06,09,02,961.40
2023,01,06,09,03,961.40
2023,01,06,09,04,961.40
2023,01,06,09,05,961.40
2023,01,06,09,06,961.40
2023,01,06,09,07,961.40
2023,01,06,09,08,961.40
2023,01,06,09,09,961.40
2023,01,06,09,10,961.40
2023,01,06,09,11,961.40
2023,01,06,09,12,961.40
2023,01,06,09,13,961.40
2023,01,06,09,14,961.40
2023,01,06,09,15,961.40
2023,01,06,09,16,950.05
2023,01,06,09,17,923.57
2023,01,06,09,18,923.57
2023,01,06,09,19,923.57
2023,01,06,09,20,923.57
2023,01,06,09,21,923.57
2023,01,06,09,22,923.57
2023,01,06,09,23,923.57
2023,01,06,09,24,923.57
2023,01,06,09,25,923.57
2023,01,06,09,26,923.57
2023,01,06,09,27,923.57
2023,01,06,09,28,923.57
2023,01,06,09,29,923.57
2023,01,06,09,30,923.57
2023,01,06,09,31,923.57
2023,01,06,09,32,923.57
2023,01,06,09,33,923.57
2023,01,06,09,34,923.57
2023,01,06,09,35,923.57
2023,01,06,09,36,923.57
2023,01,06,09,37,923.57
2023,01,06,09,38,923.57
2023,01,06,15,18,906.81
2023,01,06,15,19,906.81
2023,01,06,15,20,906.81
2023,01,06,15,21,906.81
2023,01,06,15,22,906.81
2023,01,06,15,23,906.81
2023,01,06,15,24,906.81
2023,01,06,15,25,906.81
2023,01,06,15,26,906.81
2023,01,06,15,27,906.81
2023,01,06,15,28,906.81
2023,01,06,15,29,906.81
2023,01,06,15,30,906.81
2023,01,06,15,31,906.81
2023,01,06,15,32,906.81
2023,01,06,15,33,906.81
2023,01,06,15,34,906.81
2023,01,06,15,35,906.81
2023,01,06,15,36,906.81
2023,01,06,15,37,906.81
2023,01,06,15,38,906.81
2023,01,06,15,39,906.81
2023,01,06,15,40,906.81
2023,01,06,15,41,906.81
2023,01,06,15,42,906.81
2023,01,06,15,43,906.81
2023,01,06,15,44,914.40
2023,01,06,15,45,937.18
2023,01,06,15,46,937.18
2023,01,06,15,47,937.18
2023,01,06,15,48,937.18
2023,01,06,15,49,937.18
2023,01,06,15,50,937.18
2023,01,06,15,51,937.18
2023,01,06,15,52,937.18
2023,01,06,15,53,935.07
2023,01,06,15,54,928.72
2023,01,06,15,55,928.72
2023,01,06,15,56,928.72
2023,01,06,15,57,928.72
2023,01,06,15,58,928.72
2023,01,06,15,59,928.72
2023,01,06,16,00,928.72
2023,01,06,16,01,928.72
2023,01,06,16,02,928.72
2023,01,06,16,03,928.72
2023,01,06,16,04,928.72
2023,01,06,16,05,928.72
2023,01,06,16,06,928.72
2023,01,06,16,07,928.72
2023,01,06,16,08,928.72
2023,01,06,16,09,928.72
2023,01,06,16,10,928.72
2023,01,06,16,11,928.72
2023,01,06,16,12,928.72
2023,01,06,16,13,928.72
2023,01,06,16,14,928.72
2023,01,06,16,15,928.72
2023,01,06,16,16,928.72
2023,01,06,16,17,928.72
2023,01,06,16,18,928.72
2023,01,06,16,19,928.72
2023,01,06,16,20,928.72
2023,01,06,16,21,928.72
2023,01,06,16,22,928.72
2023,01,06,16,23,928.72
2023,01,06,16,24,928.72
2023,01,06,16,25,928.72
2023,01,06,16,26,928.72
2023,01,06,16,27,928.72
2023,01,06,16,28,928.72
2023,01,06,16,29,928.72
2023,01,06,16,30,928.72
2023,01,06,16,31,928.72
2023,01,06,16,32,928.72
2023,01,06,16,33,928.72
2023,01,06,16,34,928.72
2023,01,06,16,35,928.72
2023,01,06,16,36,928.72
2023,01,06,16,37,928.72
2023,01,06,16,38,928.72
2023,01,06,16,39,928.72
2023,01,06,16,40,928.72
2023,01,06,16,41,928.72
2023,01,06,16,42,928.72
2023,01,06,16,43,928.72
2023,01,06,16,44,928.72
2023,01,06,16,45,928.72
2023,01,06,16,46,933.36
2023,01,06,16,47,951.91
2023,01,06,16,48,951.91
2023,01,06,16,49,951.91
2023,01,06,16,50,951.91
2023,01,06,16,51,951.91
2023,01,06,16,52,951.91
2023,01,06,16,53,951.91
2023,01,06,16,54,951.91
2023,01,06,16,55,951.91
2023,01,06,16,56,951.91
2023,01,06,16,57,951.91
2023,01,06,16,58,951.91
2023,01,06,16,59,951.91
2023,01,06,17,00,951.91
2023,01,06,17,01,951.91
2023,01,06,17,02,951.91
2023,01,06,17,03,951.91
2023,01,06,17,04,951.91
2023,01,06,17,05,951.91
2023,01,06,17,06,951.91
2023,01,06,17,07,951.91
2023,01,06,17,08,951.91
2023,01,06,17,09,951.91
2023,01,06,17,10,951.91
2023,01,06,17,11,951.91
2023,01,06,17,12,951.91
2023,01,06,17,13,951.91
2023,01,06,17,14,951.91
2023,01,06,17,15,951.91
2023,01,06,17,16,959.08
2023,01,06,17,17,980.60
2023,01,06,17,18,980.60
2023,01,06,17,19,980.60
2023,01,06,17,20,980.60
2023,01,06,17,21,980.60
2023,01,06,17,22,980.60
2023,01,06,17,23,980.60
2023,01,06,17,24,980.60
2023,01,06,17,25,980.60
2023,01,06,17,26,980.60
2023,01,06,17,27,980.60
2023,01,06,17,28,980.60
2023,01,06,17,29,980.60
2023,01,06,17,30,980.60
2023,01,06,17,31,980.60
2023,01,06,17,32,980.60
2023,01,06,17,33,980.60
2023,01,06,17,34,980.60
2023,01,06,17,35,980.60
2023,01,06,17,36,980.36
2023,01,06,17,37,979.65
2023,01,06,17,38,979.65
2023,01,06,17,39,979.65
2023,01,06,17,40,979.65
2023,01,06,17,41,979.65
2023,01,06,17,42,979.65
2023,01,06,17,43,979.65
2023,01,06,17,44,979.65
2023,01,06,17,45,979.65
2023,01,06,17,46,979.65
2023,01,06,17,47,979.65
2023,01,06,17,48,979.65
2023,01,06,17,49,979.65
2023,01,06,17,50,979.65
2023,01,06,17,51,979.65
2023,01,06,17,52,979.65
2023,01,06,17,53,979.65
2023,01,06,17,54,979.65
2023,01,06,17,55,979.65
2023,01,06,17,56,979.65
2023,01,06,17,57,979.65
2023,01,06,17,58,979.65
2023,01,06,17,59,979.65
2023,01,06,18,00,979.65
2023,01,06,18,01,979.65
2023,01,06,18,02,979.65
2023,01,06,18,03,979.65
2023,01,06,18,04,979.92
2023,01,06,18,05,981.00
2023,01,06,18,06,981.00
2023,01,06,18,07,981.00
2023,01,06,18,08,981.00
2023,01,06,18,09,981.00
2023,01,06,18,10,981.00
2023,01,06,18,11,981.00
2023,01,06,18,12,981.00
2023,01,06,18,13,981.00
2023,01,06,18,14,981.00
2023,01,06,18,15,981.00
2023,01,06,18,16,981.00
2023,01,06,18,17,981.00
2023,01,06,18,18,981.00
2023,01,06,18,19,980.21
2023,01,06,18,20,977.82
2023,01,06,18,21,977.82
2023,01,06,18,22,977.82
2023,01,06,18,23,977.82
2023,01,06,18,24,977.82
2023,01,06,18,25,979.98
2023,01,06,18,26,986.46
2023,01,06,18,27,987.16
2023,01,06,18,28,989.80
2023,01,06,18,29,989.74
2023,01,06,18,30,989.74
2023,01,06,18,31,989.74
2023,01,06,18,32,988.84
2023,01,06,18,33,986.07
2023,01,06,18,34,985.96
2023,01,06,18,35,986.15
2023,01,06,18,36,986.15
2023,01,06,18,37,986.15
2023,01,06,18,38,986.15
2023,01,06,18,39,986.15
2023,01,06,18,40,986.15
2023,01,06,18,41,986.15
2023,01,06,18,42,986.15
2023,01,06,18,43,986.15
2023,01,06,18,44,987.06
2023,01,06,18,45,990.60
2023,01,06,18,46,990.93
2023,01,06,18,47,991.03
2023,01,06,18,48,991.33
2023,01,06,18,49,991.33
2023,01,06,18,50,991.33
2023,01,06,18,51,991.33
2023,01,06,18,52,991.33
2023,01,06,18,53,991.33
2023,01,06,18,54,991.33
2023,01,06,18,55,991.33
2023,01,06,18,56,991.33
2023,01,06,18,57,991.33
2023,01,06,18,58,991.33
2023,01,06,18,59,991.33
2023,01,06,19,00,991.33
2023,01,06,19,01,991.33
2023,01,06,19,02,988.18
2023,01,06,19,03,978.73
2023,01,06,19,04,978.73
2023,01,06,19,05,978.73
2023,01,06,19,06,978.73
2023,01,06,19,07,978.73
2023,01,06,19,08,978.73
2023,01,06,19,09,978.73
2023,01,06,19,10,978.73
2023,01,06,19,11,978.73
2023,01,06,19,12,978.73
2023,01,06,19,13,978.73
2023,01,06,19,14,978.73
2023,01,06,19,15,978.73
2023,01,06,19,16,978.73
2023,01,06,19,17,978.73
2023,01,06,19,18,978.73
2023,01,06,19,19,983.11
2023,01,06,19,20,995.36
2023,01,06,19,21,995.36
2023,01,06,19,22,995.36
2023,01,06,19,23,995.36
2023,01,06,19,24,995.36
2023,01,06,19,25,995.36
2023,01,06,19,26,995.36
2023,01,06,19,27,995.36
2023,01,06,19,28,995.36
2023,01,06,19,29,992.41
2023,01,06,19,30,983.54
2023,01,06,19,31,983.54
2023,01,06,19,32,983.54
2023,01,06,19,33,983.54
2023,01,06,19,34,986.26
2023,01,06,19,35,994.55
2023,01,06,19,36,994.99
2023,01,06,19,37,995.62
2023,01,06,19,38,997.57
2023,01,06,19,39,997.70
2023,01,06,19,40,997.70
2023,01,06,19,41,996.13
2023,01,06,19,42,990.25
2023,01,06,19,43,990.25
2023,01,06,19,44,990.76
2023,01,06,19,45,992.82
2023,01,06,19,46,992.92
2023,01,06,19,47,992.92
2023,01,06,19,48,992.92
2023,01,06,19,49,992.92
2023,01,06,19,50,992.92
2023,01,06,19,51,992.92
2023,01,06,19,52,992.92
2023,01,06,19,53,992.92
2023,01,06,19,54,993.08
2023,01,06,19,55,993.57
2023,01,06,19,56,993.57
2023,01,06,19,57,993.57
2023,01,06,19,58,993.57
2023,01,06,19,59,993.57
2023,01,06,20,00,993.57
2023,01,06,20,01,992.16
2023,01,06,20,02,987.95
2023,01,06,20,03,987.95
2023,01,06,20,04,987.95
2023,01,06,20,05,988.38
2023,01,06,20,06,989.93
2023,01,06,20,07,989.71
2023,01,06,20,08,989.71
2023,01,06,20,09,989.71
2023,01,06,20,10,989.71
2023,01,06,20,11,989.84
2023,01,06,20,12,990.35
2023,01,06,20,13,990.65
2023,01,06,20,14,990.65
2023,01,06,20,15,990.65
2023,01,06,20,16,990.65
2023,01,06,20,17,990.65
2023,01,06,20,18,989.87
2023,01,06,20,19,987.69
2023,01,06,20,20,988.15
2023,01,06,20,21,987.89
2023,01,06,20,22,986.86
2023,01,06,20,23,986.86
2023,01,06,20,24,986.86
2023,01,06,20,25,987.10
2023,01,06,20,26,988.08
2023,01,06,20,27,988.08
2023,01,06,20,28,988.08
2023,01,06,20,29,988.08
2023,01,06,20,30,988.50
2023,01,06,20,31,990.30
2023,01,06,20,32,990.76
2023,01,06,20,33,990.76
2023,01,06,20,34,990.76
2023,01,06,20,35,990.76
2023,01,06,20,36,990.76
2023,01,06,20,37,990.76
2023,01,06,20,38,990.76
2023,01,06,20,39,990.76
2023,01,06,20,40,990.76
2023,01,06,20,41,990.76
2023,01,06,20,42,990.76
2023,01,06,20,43,990.76
2023,01,06,20,44,990.76
2023,01,06,20,45,990.76
2023,01,06,20,46,990.76
2023,01,06,20,47,990.76
2023,01,06,20,48,990.76
2023,01,06,20,49,990.76
2023,01,06,20,50,990.76
2023,01,06,20,51,990.76
2023,01,06,20,52,990.76
2023,01,06,20,53,990.76
2023,01,06,20,54,990.76
2023,01,06,20,55,993.11
2023,01,06,20,56,1002.51
2023,01,06,20,57,1002.51
2023,01,06,20,58,1002.51
2023,01,06,20,59,1002.51
2023,01,06,21,00,1002.51
2023,01,06,21,01,1002.51
2023,01,06,21,02,1002.88
2023,01,06,21,03,1004.00
2023,01,06,21,04,1004.00
2023,01,06,21,05,1004.00
2023,01,06,21,06,1004.00
2023,01,06,21,07,1001.43
2023,01,06,21,08,991.77
2023,01,06,21,09,991.77
2023,01,06,21,10,991.77
2023,01,06,21,11,992.26
2023,01,06,21,12,993.74
2023,01,06,21,13,993.06
2023,01,06,21,14,991.03
2023,01,06,21,15,992.08
2023,01,06,21,16,996.28
2023,01,06,21,17,996.28
2023,01,06,21,18,996.28
2023,01,06,21,19,996.28
2023,01,06,21,20,996.88
2023,01,06,21,21,999.29
2023,01,06,21,22,999.29
2023,01,06,21,23,999.29
2023,01,06,21,24,999.29
2023,01,06,21,25,999.29
2023,01,06,21,26,999.29
2023,01,06,21,27,999.29
2023,01,06,21,28,999.29
2023,01,06,21,29,999.29
2023,01,06,21,30,999.29
2023,01,06,21,31,999.29
2023,01,06,21,32,999.29
2023,01,06,21,33,999.29
2023,01,06,21,34,1000.99
2023,01,06,21,35,1006.44
2023,01,06,21,36,1006.44
2023,01,06,21,37,1006.44
2023,01,06,21,38,1006.44
2023,01,06,21,39,1006.44
2023,01,06,21,40,1006.44
2023,01,06,21,41,1006.44
2023,01,06,21,42,1006.44
2023,01,06,21,43,1006.44
2023,01,06,21,44,1006.44
2023,01,06,21,45,1006.44
2023,01,06,21,46,1006.44
2023,01,06,21,47,1006.44
2023,01,06,21,48,1006.44
2023,01,06,21,49,1006.44
2023,01,06,21,50,1006.44
2023,01,06,21,51,1006.44
2023,01,06,21,52,1006.44
2023,01,06,21,53,1006.44
2023,01,06,21,54,1006.44
2023,01,06,21,55,1006.44
2023,01,06,21,56,1006.44
2023,01,06,21,57,1006.44
2023,01,06,21,58,1006.44
2023,01,06,21,59,1006.44
2023,01,06,22,00,1002.87
2023,01,06,22,01,989.50
2023,01,06,22,02,989.55
2023,01,06,22,03,989.77
2023,01,06,22,04,989.77
2023,01,06,22,05,989.70
2023,01,06,22,06,989.43
2023,01,06,22,07,989.37
2023,01,06,22,08,989.27
2023,01,06,22,09,989.27
2023,01,06,22,10,989.27
2023,01,06,22,11,989.27